This is the latest recevied weather packets stored in our database for station/object WD9EKA. If no packets are shown the sender has not sent any weather packets the latest 10 day(s).
| Time | Temp. | Humidity | Pressure | Rain* | Wind** | Luminosity | Snow |
|---|---|---|---|---|---|---|---|
| 1777740907 | 12.22° C | 45% | 1015 hPa | 0 mm | - | - | - |
| 1777740587 | 11.67° C | 48% | 1014.9 hPa | 0 mm | - | - | - |
| 1777740267 | 11.67° C | 48% | 1015.1 hPa | 0 mm | - | - | - |
| 1777739947 | 11.67° C | 51% | 1015.1 hPa | 0 mm | - | - | - |
| 1777739627 | 11.67° C | 50% | 1015.2 hPa | 0 mm | - | - | - |
| 1777739313 | 12.22° C | 49% | 1015.1 hPa | 0 mm | - | - | - |
| 1777738953 | 11.67° C | 51% | 1015.2 hPa | 0 mm | - | - | - |
| 1777738593 | 11.11° C | 53% | 1015.2 hPa | 0 mm | - | - | - |
| 1777738233 | 11.11° C | 52% | 1015.3 hPa | 0 mm | - | - | - |
| 1777737873 | 11.11° C | 54% | 1015.4 hPa | 0 mm | - | - | - |
| 1777737513 | 11.11° C | 56% | 1015.5 hPa | 0 mm | - | - | - |
| 1777737153 | 12.22° C | 51% | 1015.2 hPa | 0 mm | - | - | - |
| 1777736793 | 11.67° C | 54% | 1015.2 hPa | 0 mm | - | - | - |
| 1777736433 | 11.11° C | 52% | 1015.2 hPa | 0 mm | - | - | - |
| 1777736073 | 11.11° C | 54% | 1015.1 hPa | 0 mm | - | - | - |
| 1777735773 | 11.11° C | 53% | 1015.3 hPa | 0 mm | - | - | - |
| 1777735413 | 10.56° C | 59% | 1015.4 hPa | 0 mm | - | - | - |
| 1777735053 | 10.56° C | 54% | 1015.2 hPa | 0 mm | - | - | - |
| 1777734753 | 10.56° C | 55% | 1015.3 hPa | 0 mm | - | - | - |
| 1777734393 | 10.56° C | 53% | 1015.2 hPa | 0 mm | - | - | - |
| 1777734033 | 11.11° C | 53% | 1015.4 hPa | 0 mm | - | - | - |
| 1777733673 | 10.56° C | 53% | 1015.2 hPa | 0 mm | - | - | - |
| 1777733313 | 10.56° C | 53% | 1015.3 hPa | 0 mm | - | - | - |
| 1777732953 | 10° C | 53% | 1015.2 hPa | 0 mm | - | - | - |
| 1777732593 | 10.56° C | 55% | 1015.2 hPa | 0 mm | - | - | - |
* Rain latest hour (hover to see other rain measurements)
** Current wind speed in m/s (hover to see current wind gust speed)